Date String (YYYY-MM-DD hh:mm:ss) UTC,Instrument flags,Ambient pressure (hPa),Sample flow (lpm),Bypass flow (lpm),Sample temperature (°C),Ambient temperature (°C),ASC tube jacket temperature (°C),LED temperature (°C),Box temperature (°C),Sample RH (%),Span deviation,Mass concentration (μg/m³),Mass concentration (μg/m³),Mass concentration (μg/m³)
DateTimeUTC,F1_M11,P_M11,Q1_M11,Q2_M11,T1_M11,T2_M11,T3_M11,T4_M11,T5_M11,U1_M11,ZSPAN_M11,X0_M11,X2_M11,X1_M11
2022-08-18 08:00:00,,0830.9,5.00,0.00,29.7,27.7,00.0,38.6,31.4,19.3,0000.0,0007.94,0004.51,0004.25
2022-08-18 08:01:00,,0830.9,5.01,0.00,29.7,27.8,00.0,38.6,31.4,19.2,0000.0,0008.64,0004.52,0004.24
2022-08-18 08:02:00,,0830.9,5.00,0.00,29.7,27.9,00.0,38.6,31.5,19.2,0000.0,0008.96,0004.52,0004.23
2022-08-18 08:03:00,,0830.9,5.00,0.00,29.7,28.0,00.0,38.5,31.5,19.2,0000.0,0008.93,0004.49,0004.21
2022-08-18 08:04:00,,0830.8,4.99,0.00,29.7,28.1,00.0,38.5,31.5,19.2,0000.0,0008.96,0004.48,0004.20
2022-08-18 08:05:00,,0830.8,5.00,0.00,29.7,28.2,00.0,38.5,31.5,19.5,0000.0,0008.97,0004.47,0004.19
2022-08-18 08:06:00,,0830.8,5.00,0.00,29.7,28.3,00.0,38.5,31.5,19.4,0000.0,0008.89,0004.50,0004.19
2022-08-18 08:07:00,,0830.7,5.00,0.00,29.7,28.4,00.0,38.5,31.5,19.2,0000.0,0008.57,0004.53,0004.18
2022-08-18 08:08:00,,0830.7,4.99,0.00,29.7,28.5,00.0,38.5,31.6,19.1,0000.0,0008.52,0004.55,0004.17
2022-08-18 08:09:00,,0830.8,5.00,0.00,29.7,28.5,00.0,38.5,31.6,19.1,0000.0,0008.34,0004.58,0004.17
2022-08-18 08:10:00,,0830.7,5.00,0.00,29.8,28.6,00.0,38.5,31.7,19.3,0000.0,0008.34,0004.59,0004.16
2022-08-18 08:11:00,,0830.8,5.00,0.00,29.8,28.6,00.0,38.5,31.7,19.5,0000.0,0008.29,0004.58,0004.16
2022-08-18 08:12:00,,0830.8,4.99,0.00,29.8,28.7,00.0,38.5,31.7,19.0,0000.0,0007.59,0004.54,0004.14
2022-08-18 08:13:00,,0830.8,5.01,0.00,29.8,28.7,00.0,38.6,31.7,18.9,0000.0,0007.47,0004.56,0004.14
2022-08-18 08:14:00,,0830.9,5.00,0.00,29.8,28.7,00.0,38.6,31.7,18.9,0000.0,0007.57,0004.61,0004.14
2022-08-18 08:15:00,,0830.9,5.00,0.00,29.8,28.8,00.0,38.6,31.7,18.9,0000.0,0007.68,0004.63,0004.14
2022-08-18 08:16:00,,0830.9,4.99,0.00,29.9,28.8,00.0,38.6,31.7,18.8,0000.0,0008.56,0004.66,0004.13
2022-08-18 08:17:00,,0830.9,5.00,0.00,29.9,28.8,00.0,38.6,31.7,18.9,0000.0,0008.69,0004.69,0004.13
2022-08-18 08:18:00,,0830.9,5.00,0.00,29.9,28.9,00.0,38.6,31.7,18.8,0000.0,0008.74,0004.66,0004.13
2022-08-18 08:19:00,,0830.9,5.01,0.00,29.9,28.9,00.0,38.6,31.8,19.0,0000.0,0008.71,0004.65,0004.13
2022-08-18 08:20:00,,0830.9,4.99,0.00,29.9,28.9,00.0,38.7,31.8,19.2,0000.0,0008.57,0004.62,0004.14
2022-08-18 08:21:00,,0830.9,5.01,0.00,30.0,28.9,00.0,38.7,31.9,18.8,0000.0,0008.58,0004.61,0004.14
2022-08-18 08:22:00,,0830.9,5.00,0.00,30.0,29.0,00.0,38.7,31.9,18.8,0000.0,0008.58,0004.60,0004.14
2022-08-18 08:23:00,,0830.9,5.00,0.00,30.0,29.0,00.0,38.7,31.9,18.5,0000.0,0008.64,0004.63,0004.15
2022-08-18 08:24:00,,0830.9,5.00,0.00,30.0,29.0,00.0,38.7,31.9,18.4,0000.0,0008.49,0004.59,0004.16
2022-08-18 08:25:00,,0830.9,5.00,0.00,30.0,29.0,00.0,38.7,32.0,18.4,0000.0,0008.39,0004.56,0004.17
2022-08-18 08:26:00,,0830.9,5.00,0.00,30.1,29.1,00.0,38.8,32.0,18.6,0000.0,0008.29,0004.55,0004.18
2022-08-18 08:27:00,,0830.9,4.99,0.00,30.1,29.1,00.0,38.8,32.0,18.7,0000.0,0007.45,0004.55,0004.20
2022-08-18 08:28:00,,0831.0,5.00,0.00,30.1,29.1,00.0,38.8,32.0,18.7,0000.0,0007.60,0004.53,0004.20
2022-08-18 08:29:00,,0831.0,5.01,0.00,30.1,29.1,00.0,38.8,32.0,18.2,0000.0,0007.59,0004.53,0004.21
2022-08-18 08:30:00,,0831.0,4.98,0.00,30.1,29.2,00.0,38.8,32.0,18.2,0000.0,0007.49,0004.52,0004.22
2022-08-18 08:31:00,,0831.0,5.00,0.00,30.1,28.9,00.0,38.8,32.0,17.9,0000.0,0007.57,0004.54,0004.22
2022-08-18 08:32:00,,0831.0,5.01,0.00,30.1,28.0,00.0,38.8,31.7,18.0,0000.0,0007.65,0004.55,0004.22
2022-08-18 08:33:00,,0831.0,5.01,0.00,30.0,27.7,00.0,38.7,31.6,18.1,0000.0,0007.68,0004.57,0004.22
2022-08-18 08:34:00,,0830.9,4.99,0.00,29.9,27.6,00.0,38.7,31.5,18.5,0000.0,0008.12,0004.58,0004.23
2022-08-18 08:35:00,,0830.9,5.01,0.00,29.8,27.7,00.0,38.7,31.5,18.6,0000.0,0008.33,0004.58,0004.22
2022-08-18 08:36:00,,0830.9,5.00,0.00,29.8,27.8,00.0,38.7,31.5,18.4,0000.0,0008.32,0004.58,0004.23
2022-08-18 08:37:00,,0830.9,5.00,0.00,29.8,27.9,00.0,38.6,31.5,18.3,0000.0,0008.29,0004.56,0004.21
2022-08-18 08:38:00,,0830.9,5.00,0.00,29.8,28.0,00.0,38.6,31.5,18.5,0000.0,0008.32,0004.54,0004.20
2022-08-18 08:39:00,,0830.9,4.99,0.00,29.8,28.1,00.0,38.6,31.6,18.4,0000.0,0008.08,0004.53,0004.19
2022-08-18 08:40:00,,0830.9,5.00,0.00,29.8,28.2,00.0,38.6,31.6,18.6,0000.0,0008.21,0004.51,0004.18
2022-08-18 08:41:00,,0830.9,5.01,0.00,29.8,28.3,00.0,38.6,31.6,18.6,0000.0,0008.55,0004.51,0004.17
2022-08-18 08:42:00,,0830.9,4.99,0.00,29.8,28.4,00.0,38.6,31.6,18.7,0000.0,0008.63,0004.50,0004.16
2022-08-18 08:43:00,,0830.9,5.01,0.00,29.8,28.4,00.0,38.6,31.6,18.9,0000.0,0008.77,0004.49,0004.16
2022-08-18 08:44:00,,0830.9,5.00,0.00,29.8,28.5,00.0,38.6,31.7,19.0,0000.0,0008.84,0004.51,0004.17
2022-08-18 08:45:00,,0830.9,5.01,0.00,29.8,28.5,00.0,38.6,31.7,19.1,0000.0,0008.52,0004.49,0004.17
2022-08-18 08:46:00,,0830.9,4.98,0.00,29.8,28.6,00.0,38.6,31.7,19.0,0000.0,0008.25,0004.48,0004.16
2022-08-18 08:47:00,,0830.9,5.01,0.00,29.8,28.6,00.0,38.6,31.7,19.2,0000.0,0008.36,0004.50,0004.17
2022-08-18 08:48:00,,0830.9,5.01,0.00,29.8,28.7,00.0,38.6,31.7,19.3,0000.0,0008.44,0004.53,0004.18
2022-08-18 08:49:00,,0831.0,4.98,0.00,29.9,28.7,00.0,38.6,31.8,19.2,0000.0,0008.50,0004.55,0004.19
2022-08-18 08:50:00,,0831.0,5.00,0.00,29.9,28.8,00.0,38.6,31.7,19.1,0000.0,0008.69,0004.54,0004.22
2022-08-18 08:51:00,,0831.1,5.01,0.00,29.9,28.8,00.0,38.6,31.8,18.9,0000.0,0008.99,0004.55,0004.23
2022-08-18 08:52:00,,0831.0,5.01,0.00,29.9,28.8,00.0,38.7,31.8,18.7,0000.0,0008.73,0004.56,0004.24
2022-08-18 08:53:00,,0831.0,4.99,0.00,29.9,28.8,00.0,38.7,31.8,18.5,0000.0,0008.82,0004.56,0004.25
2022-08-18 08:54:00,,0831.0,5.01,0.00,29.9,28.9,00.0,38.7,31.8,18.7,0000.0,0009.08,0004.56,0004.26
2022-08-18 08:55:00,,0831.0,5.00,0.00,30.0,28.9,00.0,38.7,31.9,18.9,0000.0,0009.70,0004.56,0004.28
2022-08-18 08:56:00,,0831.0,4.99,0.00,30.0,28.9,00.0,38.7,31.9,19.0,0000.0,0009.67,0004.60,0004.30
2022-08-18 08:57:00,,0831.0,4.99,0.00,30.0,28.9,00.0,38.7,31.9,19.0,0000.0,0009.80,0004.65,0004.33
2022-08-18 08:58:00,,0831.0,4.99,0.00,30.0,29.0,00.0,38.7,31.9,19.0,0000.0,0009.84,0004.67,0004.35
2022-08-18 08:59:00,,0831.0,5.01,0.00,30.0,29.0,00.0,38.7,31.9,18.9,0000.0,0009.97,0004.72,0004.39
